Location: Gro�bocka
(50.8204°N, 11.9702°E)
Time: 05:49:56
(UTC+00:00)

SJ-11-01 - Pass Details

Date: 29 October 2020
Orbit: 685 x 700 km, 98.0° (Epoch: 01 December)

Event Time Altitude Azimuth Distance (km) Brightness Sun altitude
Exits shadow 17:35:47 10° 146° (SSE) 2,110 6.5 -16.9°
Maximum altitude 17:40:16 54° 70° (ENE) 834 4.3 -17.6°
Drops below altitude 10° 17:44:51 10° 354° (N) 2,152 6.9 -18.4°
Sets 17:47:09 0° 350° (N) 3,075 7.8 -18.7°
